Regional Weather Roundup
Issued by NWS

Home | Current Version | Previous Version | Text Only | Print | Product List | Glossary On
Versions: 1 2 3 4 5 6 7 8 9 10 11 12 13 14 15 16 17 18 19 20 21 22 23 24 25 26 27 28 29 30 31 32 33 34 35 36 37 38 39 40 41 42 43 44 45 46 47 48 49 50
000
ASHW40 PHFO 020212
RWRHI

WEATHER ROUNDUP FOR HAWAII
NATIONAL WEATHER SERVICE HONOLULU HI
400 PM HST SAT AUG 01 2015

THIS IS AN AUTOMATED REPORT THAT HAS NOT BEEN QUALITY CONTROLLED.

NOTE..."FAIR" INDICATES FEW OR NO CLOUDS BELOW 12,000 FEET WITH NO
SIGNIFICANT WEATHER AND/OR OBSTRUCTIONS TO VISIBILITY.

* - THESE SITES REPORT LIMITED FIELDS

HIZ001>004-020300-
KAUAI-NIIHAU-

CITY           SKY/WX    TMP DP  RH WIND       PRES   REMARKS
LIHUE APT      FAIR      86  70  58 NE17      29.95F HX  90
PORT ALLEN*    NOT AVBL
POIPU*         NOT AVBL
PRINCEVILLE*   NOT AVBL
KOKOLE POINT*  NOT AVBL
MOLOAA DAIRY*  NOT AVBL
WAIMEA HTS*    NOT AVBL
PUU OPAE*      NOT AVBL
PUU LUA*       NOT AVBL
MAKAHA RIDGE*  NOT AVBL
$$

HIZ005>011-020300-
OAHU-

CITY           SKY/WX    TMP DP  RH WIND       PRES   REMARKS
HONOLULU       FAIR      88  69  53 NE15G22   29.90F HX  92
KALAELOA       FAIR      86  64  47 NE10G23   29.91F
KANEOHE MCB    FAIR      84  70  62 NE15G24   29.91F
WHEELER FIELD  MOSUNNY   82  63  51 VRB7      29.95F
BELLOWS*       NOT AVBL
KAHUKU*        NOT AVBL
WHEELER*       NOT AVBL
WAIANAE HARBOR NOT AVBL
DILLINGHAM*    NOT AVBL
KAHUKU TRN*    NOT AVBL
KAWAILOA*      NOT AVBL
KII*           NOT AVBL
MAKUA RANGE*   NOT AVBL
OAHU FOREST NW NOT AVBL
SCHOFIELD BRK* NOT AVBL
SCHOFIELD S*   NOT AVBL
WAIANAE VLY*   NOT AVBL
KUAOKALA*      NOT AVBL
HONOULIUULI*   NOT AVBL
MOKUOLOE IS*   NOT AVBL
PALEHUA*       NOT AVBL
WAIAWA PHB*    NOT AVBL
$$

HIZ012>013-020300-
MOLOKAI-

CITY           SKY/WX    TMP DP  RH WIND       PRES   REMARKS
MOLOKAI AIRPT  FAIR      83  69  62 NE16G35   29.90F
KALAUPAPA      NOT AVBL
MAKAPULAPAI*   NOT AVBL
MOLOKAI 1*     NOT AVBL
PUU ALII*      NOT AVBL
$$

HIZ016-020300-
KAHOOLAWE-

CITY           SKY/WX    TMP DP  RH WIND       PRES   REMARKS
KAHOOLAWE*     NOT AVBL
HAKIOAWA*      NOT AVBL
HONOKANAIA*    NOT AVBL
KANELOA*       NOT AVBL
KEALIALALO*    NOT AVBL
LUA MAKIKA*    NOT AVBL
$$

HIZ014>015-020300-
LANAI-

CITY           SKY/WX    TMP DP  RH WIND       PRES   REMARKS
LANAI CITY     FAIR      80  69  69 NE21G37   29.93F
LANAI 1*       NOT AVBL
$$

HIZ017>028-020300-
MAUI-

CITY           SKY/WX    TMP DP  RH WIND       PRES   REMARKS
KAHULUI        PTSUNNY   84  70  62 N18       29.92F
KAPALUA-W MAUI MOSUNNY   84  68  58 NE17G30   29.91
HANA AIRPORT   CLOUDY    81  72  74 NE7       29.96S
HANA*          NOT AVBL
HALEAKALA SUMM   N/A     57  45  62 E15G28      N/A
MAALAEA BAY*   NOT AVBL
HALEAKALA*     NOT AVBL
KAUPO GAP*     NOT AVBL
KULA 1*        NOT AVBL
$$

HIZ023>026-020300-
BIG ISLAND OF HAWAII COAST AND LOWER SLOPES-

CITY           SKY/WX    TMP DP  RH WIND       PRES   REMARKS
KAILUA KONA    FAIR      92  70  48 S15       29.81F HX  97
HILO           CLOUDY    77  75  93 NW6       29.91S
HONOKAA*       NOT AVBL
KAWAIHAE MWT*  NOT AVBL
KAWAIHAE*      NOT AVBL
SOUTH POINT*   NOT AVBL
UPOLU AIRPORT* NOT AVBL
KAMUELA*       PTCLDY    72  68  88 NE22      29.98S
HAKALAU*       NOT AVBL
KALOKO-HONOKO* NOT AVBL
PALI 2*        NOT AVBL
KEALAKOMO*     NOT AVBL
KAUPULEHU*     NOT AVBL
KAPAPALA*      NOT AVBL
LOWER KAHUKU*  NOT AVBL
PUHE CS*       NOT AVBL
PUHO CS*       NOT AVBL
PTA KEAMUKU*   NOT AVBL
WAIKOLOA*      NOT AVBL
$$

HIZ027>028-020300-
BIG ISLAND OF HAWAII INTERIOR AND SUMMMITS-

CITY           SKY/WX    TMP DP  RH WIND       PRES   REMARKS
BRADSHAW FIELD FAIR      73  59  60 SE16G29   30.21S
MK VISITOR CEN   N/A      0   0 100 MISG        N/A
MAUNA KEA*       N/A     52  41  66 NE2         N/A
MAUNA LOA*     NOT AVBL
MAUNA LOA 1*   NOT AVBL
PTA KIPUKA*    NOT AVBL
PTA RANGE 17*  NOT AVBL
PTA WEST*      NOT AVBL
NENE CABIN*    NOT AVBL
AHUMOA*        NOT AVBL
PTA PORTABLE*  NOT AVBL
PUU MALI*      NOT AVBL
$$

HIC003-020300-
NORTHWEST ISLANDS-

CITY           SKY/WX    TMP DP  RH WIND       PRES   REMARKS
MIDWAY ISLAND  SUNNY     82  73  74 SE5       29.98F
MIDWAY NOS*    NOT AVBL
FRENCH FRIGATE NOT AVBL
$$

PHZ110>124-180-020300-
BUOY REPORTS

STATION/POSITION TIME  TEMP    WIND        PRES    WAVE   SWELL
                       AIR SEA DIR/SP/G            HT/PER HT/DIR
                 (UTC) (F)     (DEG/KT/KT) (MB)    (FT/S) (FT/D)
BUOY 51001       NOT AVBL
BUOY 51101       0150   81 80   80/ 14/ 16 1015.1F   6/ 8   5/140
BUOY 51100       NOT AVBL
BUOY 51002       0150   82 82   40/ 16/ 17 1009.8F   6/ 8   5/ 90
BUOY 51003       0150   82 83   60/ 14/ 16 1011.7F   7/ 7   5
BUOY 51004       0150   82 81   70/ 16/ 17 1009.2F   8/ 9   5/ 90
BARBERS PT BUOY  NOT AVBL
WAIMEA BAY BUOY  0104      81                N/A     5/ 7
KAILUA BAY BUOY  0111      80                N/A     7/ 8   2/ 90
LANAI BUOY       NOT AVBL
BARBERS PT 2     0203      82                N/A     3/14   2/200
PAUWELA MAUI     0107      80                N/A     6/11   2/ 80
HILO             NOT AVBL
KANEOHE BAY BUOY 0103      79                N/A     6/ 7
HANALEI KAUAI    0201      81                N/A     5/ 7   2/ 80
KAHULUI HARBOR   0100   81 81   40/ 11/ 16 1013.4F
HONOLULU HARBOR  0100   85 81   80/  5/  9 1013.0F
KILO NALU        NOT AVBL
HILO HARBOR      0100   76 78  340/ 10/ 13 1012.8F
MOKUOLOE         0130      84              1013.8F
NAWILIWILI       0100   82 83   40/ 15/ 21 1014.2F
WHOTS BUOY       NOT AVBL
BUOY 51028       NOT AVBL
$$

......................KEY........................................
  SKY/WX - SKY CONDITIONS/PRESENT WEATHER
  TMP    - TEMPERATURE IN FAHRENHEIT
  DWPT   - DEWPOINT IN FAHRENHEIT
  RH     - RELATIVE HUMIDITY IN PERCENT
  WIND   - DIRECTION AND SPEED /MPH FOR ISLANDS...KTS FOR BUOYS/
  PRES   - MEAN SEA LEVEL PRESSURE IN INCHES OF HG
  VSB    - VISIBILITY IN MILES
  HX     - HEAT INDEX
  WCI    - WIND CHILL INDEX
  VRB    - VARIABLE WIND DIRECTION
  N/A    - NOT AVAILABLE


USA.gov is the U.S. government's official web portal to all federal, state and local government web resources and services.